N9XP-9 Weather Reports


time (UTC)temp
C
wind
direction
speed
KPH
gust
KPH
rain 1hr
cm
rain 24hr
cm
rain mn
cm
humidity
%
barometer
mb
20260509021545 13 134 0.0 0.0 0.00 0.00 0.00 66 1006.2
20260509020053 13 152 0.0 0.0 0.00 0.00 0.00 64 1006.1
20260509014548 15 151 0.0 0.0 0.00 0.00 0.00 61 1006.1
20260509013043 15 158 0.0 4.8 0.00 0.00 0.00 58 1006.0
20260509011542 16 163 0.0 4.8 0.00 0.00 0.00 57 1006.0
20260509010041 16 141 1.6 6.4 0.00 0.00 0.00 55 1005.9
20260509004540 17 172 1.6 6.4 0.00 0.00 0.00 54 1006.0
20260509003043 17 169 3.2 9.7 0.00 0.00 0.00 52 1006.0
20260509001538 17 148 0.0 4.8 0.00 0.00 0.00 50 1006.1
20260509000038 17 141 1.6 6.4 0.00 0.00 0.00 49 1006.1
20260508234536 18 134 0.0 6.4 0.00 0.00 0.00 49 1006.1
20260508233036 18 110 1.6 8.0 0.00 0.00 0.00 47 1006.2
20260508231535 18 172 1.6 9.7 0.00 0.00 0.00 48 1006.2
20260508230034 18 171 1.6 6.4 0.00 0.00 0.00 47 1006.4
20260508224533 18 160 4.8 11.3 0.00 0.00 0.00 44 1006.3
20260508223039 18 160 4.8 8.0 0.00 0.00 0.00 46 1006.4
20260508221531 18 157 1.6 8.0 0.00 0.00 0.00 45 1006.5
20260508220033 18 141 0.0 16.1 0.00 0.00 0.00 48 1006.6
20260508214528 18 121 1.6 6.4 0.00 0.10 0.00 48 1006.8
20260508213027 18 141 3.2 12.9 0.00 0.10 0.00 48 1006.9
20260508211528 18 161 4.8 11.3 0.00 0.10 0.00 47 1006.9
20260508210025 18 121 4.8 11.3 0.00 0.10 0.00 46 1007.0
20260508204524 20 112 1.6 11.3 0.00 0.10 0.00 42 1007.0
20260508203022 20 353 1.6 16.1 0.00 0.10 0.00 40 1007.1
20260508201522 19 169 1.6 6.4 0.00 0.10 0.00 45 1007.4
20260508200019 18 160 0.0 12.9 0.00 0.10 0.00 43 1007.7
20260508194513 18 138 0.0 6.4 0.00 0.10 0.00 47 1007.9
20260508193011 18 137 0.0 8.0 0.00 0.10 0.00 49 1008.2
20260508191521 18 131 6.4 12.9 0.00 0.10 0.00 47 1008.3
20260508190013 18 156 3.2 9.7 0.00 0.10 0.00 50 1008.5
20260508184506 18 157 3.2 11.3 0.00 0.10 0.00 49 1008.6
20260508183004 18 46 1.6 6.4 0.00 0.10 0.00 48 1008.9
20260508181609 18 139 3.2 12.9 0.00 0.10 0.00 50 1009.1
20260508174606 17 131 1.6 11.3 0.00 0.10 0.00 54 1009.5
20260508173053 17 82 1.6 12.9 0.00 0.10 0.00 56 1009.7
20260508171549 17 133 0.0 11.3 0.00 0.10 0.00 56 1010.1
20260508170048 17 113 1.6 9.7 0.00 0.10 0.00 56 1010.2
20260508164544 16 102 3.2 9.7 0.00 0.10 0.00 60 1010.5
20260508163041 16 164 3.2 9.7 0.00 0.10 0.00 57 1010.6
20260508161540 16 147 3.2 8.0 0.00 0.10 0.00 57 1010.9
20260508160041 16 115 3.2 8.0 0.00 0.10 0.00 57 1010.9
20260508154536 16 91 1.6 6.4 0.00 0.10 0.00 56 1011.1
20260508153032 15 101 0.0 3.2 0.00 0.10 0.00 61 1011.2
20260508151531 15 122 3.2 6.4 0.00 0.10 0.00 60 1011.3
20260508150032 14 137 1.6 8.0 0.00 0.10 0.00 56 1011.5
20260508144522 13 162 1.6 6.4 0.00 0.10 0.00 57 1011.6
20260508143021 12 92 3.2 6.4 0.00 0.10 0.00 63 1011.6
20260508141517 12 85 3.2 6.4 0.00 0.10 0.00 69 1011.9
20260508140012 11 123 3.2 8.0 0.00 0.10 0.00 74 1012.0
20260508134507 10 104 0.0 3.2 0.00 0.10 0.00 78 1011.8
20260508133005 10 93 0.0 3.2 0.00 0.10 0.00 83 1011.7
20260508131600 8 76 0.0 4.8 0.00 0.10 0.00 85 1011.8
20260508130055 8 66 0.0 6.4 0.00 0.10 0.00 88 1011.9
20260508124559 7 85 1.6 4.8 0.00 0.10 0.00 91 1011.8
20260508123052 6 115 1.6 4.8 0.00 0.10 0.00 92 1011.9
20260508121556 6 30 0.0 1.6 0.00 0.10 0.00 95 1012.0
20260508120050 5 332 0.0 3.2 0.00 0.10 0.00 95 1011.8
20260508114549 5 26 0.0 1.6 0.00 0.10 0.00 96 1011.9
20260508113104 5 28 0.0 0.0 0.00 0.10 0.00 97 1011.8
20260508111551 4 136 0.0 1.6 0.00 0.10 0.00 97 1011.7
20260508110053 3 135 0.0 0.0 0.00 0.10 0.00 96 1011.5
20260508104546 3 138 0.0 1.6 0.00 0.10 0.00 96 1011.7
20260508103046 3 138 0.0 0.0 0.00 0.10 0.00 96 1011.6
20260508101547 3 138 0.0 1.6 0.00 0.10 0.00 96 1011.8
20260508100043 3 126 0.0 0.0 0.00 0.10 0.00 96 1011.7
20260508094541 3 133 0.0 0.0 0.00 0.10 0.00 96 1011.7
20260508093046 3 134 0.0 0.0 0.00 0.10 0.00 95 1011.8
20260508091549 3 132 0.0 0.0 0.00 0.10 0.00 95 1011.8
20260508090040 3 132 0.0 0.0 0.00 0.10 0.00 95 1011.9
20260508084536 3 131 0.0 0.0 0.00 0.10 0.00 94 1012.0
20260508083033 4 133 0.0 1.6 0.00 0.10 0.00 94 1012.1
20260508081532 4 133 0.0 0.0 0.00 0.10 0.00 94 1012.2
20260508080039 4 136 0.0 0.0 0.00 0.10 0.00 93 1012.3
20260508074540 4 137 0.0 0.0 0.00 0.10 0.00 94 1012.3
20260508073029 4 137 0.0 0.0 0.00 0.10 0.00 93 1012.5
20260508071531 4 138 0.0 0.0 0.00 0.10 0.00 92 1012.5
20260508070024 5 136 0.0 0.0 0.00 0.10 0.00 90 1012.6
20260508064522 5 138 0.0 1.6 0.00 0.10 0.00 90 1012.6
20260508063020 5 270 0.0 0.0 0.00 0.10 0.00 90 1012.5
20260508061521 5 150 0.0 1.6 0.00 0.10 0.00 90 1012.5
20260508060017 6 128 0.0 0.0 0.00 0.10 0.00 88 1012.4
20260508054515 6 128 0.0 3.2 0.00 0.10 0.00 88 1012.4
20260508053013 6 138 0.0 0.0 0.00 0.10 0.00 87 1012.3
20260508051509 6 141 0.0 0.0 0.00 0.10 0.00 85 1012.2
20260508050008 7 140 0.0 0.0 0.00 0.10 0.00 83 1012.2
20260508044505 7 141 0.0 0.0 0.00 0.10 0.10 81 1012.1
20260508043006 8 140 0.0 0.0 0.00 0.10 0.10 77 1012.1
20260508041505 7 141 0.0 1.6 0.00 0.10 0.10 79 1012.0
20260508040009 7 139 0.0 1.6 0.00 0.10 0.10 84 1011.8
20260508034502 6 140 0.0 0.0 0.00 0.10 0.10 85 1011.7
20260508033002 6 139 0.0 0.0 0.00 0.10 0.10 84 1011.5
20260508031503 7 140 0.0 1.6 0.00 0.10 0.10 82 1011.6
20260508030001 7 142 0.0 0.0 0.00 0.10 0.10 80 1011.5
20260508024601 7 139 0.0 0.0 0.00 0.10 0.10 81 1011.4
20260508023100 7 139 0.0 0.0 0.00 0.10 0.10 79 1011.3